Year,Month,Day,Hour,Minute,Value (Times are PST for windgust in km/hr)
2011,08,21,00,00,3.20
2011,08,21,00,01,3.20
2011,08,21,00,02,3.20
2011,08,21,00,03,3.20
2011,08,21,00,04,1.60
2011,08,21,00,05,1.60
2011,08,21,00,06,3.20
2011,08,21,00,07,3.20
2011,08,21,00,08,3.20
2011,08,21,00,09,1.60
2011,08,21,00,10,3.20
2011,08,21,00,11,1.60
2011,08,21,00,12,1.60
2011,08,21,00,13,3.20
2011,08,21,00,14,3.20
2011,08,21,00,15,3.20
2011,08,21,00,16,4.80
2011,08,21,00,17,4.80
2011,08,21,00,18,4.80
2011,08,21,00,19,4.80
2011,08,21,00,20,3.20
2011,08,21,00,21,3.20
2011,08,21,00,22,3.20
2011,08,21,00,23,3.20
2011,08,21,00,24,3.20
2011,08,21,00,25,3.20
2011,08,21,00,26,3.20
2011,08,21,00,27,3.20
2011,08,21,00,28,4.80
2011,08,21,00,29,3.20
2011,08,21,00,30,3.20
2011,08,21,00,31,3.20
2011,08,21,00,32,3.20
2011,08,21,00,33,3.20
2011,08,21,00,34,3.20
2011,08,21,00,35,3.20
2011,08,21,00,36,3.20
2011,08,21,00,37,3.20
2011,08,21,00,38,3.20
2011,08,21,00,39,4.80
2011,08,21,00,40,6.40
2011,08,21,00,41,6.40
2011,08,21,00,42,4.80
2011,08,21,00,43,4.80
2011,08,21,00,44,4.80
2011,08,21,00,45,4.80
2011,08,21,00,46,3.20
2011,08,21,00,47,3.20
2011,08,21,00,48,4.80
2011,08,21,00,49,4.80
2011,08,21,00,50,3.20
2011,08,21,00,51,1.60
2011,08,21,00,54,1.60
2011,08,21,00,59,1.60
2011,08,21,01,00,1.60
2011,08,21,01,01,1.60
2011,08,21,01,09,1.60
2011,08,21,01,10,1.60
2011,08,21,01,12,1.60
2011,08,21,01,13,3.20
2011,08,21,01,14,3.20
2011,08,21,01,15,1.60
2011,08,21,01,17,1.60
2011,08,21,01,19,1.60
2011,08,21,01,20,1.60
2011,08,21,01,21,1.60
2011,08,21,01,24,3.20
2011,08,21,01,25,3.20
2011,08,21,01,26,4.80
2011,08,21,01,27,6.40
2011,08,21,01,28,6.40
2011,08,21,01,29,6.40
2011,08,21,01,30,8.10
2011,08,21,01,31,6.40
2011,08,21,01,32,4.80
2011,08,21,01,33,4.80
2011,08,21,01,34,4.80
2011,08,21,01,35,3.20
2011,08,21,01,36,1.60
2011,08,21,01,37,3.20
2011,08,21,01,38,3.20
2011,08,21,01,39,3.20
2011,08,21,01,40,3.20
2011,08,21,01,41,3.20
2011,08,21,01,42,3.20
2011,08,21,01,43,3.20
2011,08,21,01,44,3.20
2011,08,21,01,45,3.20
2011,08,21,01,46,3.20
2011,08,21,01,47,3.20
2011,08,21,01,48,3.20
2011,08,21,01,49,3.20
2011,08,21,01,50,3.20
2011,08,21,01,51,3.20
2011,08,21,01,52,1.60
2011,08,21,01,53,1.60
2011,08,21,01,55,3.20
2011,08,21,01,56,3.20
2011,08,21,01,57,3.20
2011,08,21,01,58,3.20
2011,08,21,01,59,3.20
2011,08,21,02,00,3.20
2011,08,21,02,01,4.80
2011,08,21,02,02,3.20
2011,08,21,02,03,6.40
2011,08,21,02,04,4.80
2011,08,21,02,05,4.80
2011,08,21,02,06,4.80
2011,08,21,02,07,3.20
2011,08,21,02,08,3.20
2011,08,21,02,09,3.20
2011,08,21,02,10,3.20
2011,08,21,02,11,1.60
2011,08,21,02,14,1.60
2011,08,21,02,15,1.60
2011,08,21,02,42,3.20
2011,08,21,02,43,1.60
2011,08,21,02,44,1.60
2011,08,21,02,45,1.60
2011,08,21,02,50,1.60
2011,08,21,02,51,1.60
2011,08,21,02,52,1.60
2011,08,21,02,53,1.60
2011,08,21,02,57,1.60
2011,08,21,02,58,1.60
2011,08,21,03,17,1.60
2011,08,21,03,18,4.80
2011,08,21,03,19,3.20
2011,08,21,03,20,3.20
2011,08,21,03,21,3.20
2011,08,21,03,22,3.20
2011,08,21,03,23,1.60
2011,08,21,03,24,1.60
2011,08,21,03,25,3.20
2011,08,21,03,26,3.20
2011,08,21,03,27,3.20
2011,08,21,03,28,3.20
2011,08,21,03,29,1.60
2011,08,21,03,30,1.60
2011,08,21,03,31,1.60
2011,08,21,03,32,3.20
2011,08,21,03,33,3.20
2011,08,21,03,34,1.60
2011,08,21,03,35,1.60
2011,08,21,03,36,1.60
2011,08,21,03,37,1.60
2011,08,21,03,38,1.60
2011,08,21,03,39,3.20
2011,08,21,03,40,1.60
2011,08,21,03,41,3.20
2011,08,21,03,42,3.20
2011,08,21,03,44,1.60
2011,08,21,03,49,1.60
2011,08,21,03,50,3.20
2011,08,21,03,51,3.20
2011,08,21,03,52,3.20
2011,08,21,03,53,3.20
2011,08,21,03,54,3.20
2011,08,21,03,55,3.20
2011,08,21,03,56,1.60
2011,08,21,03,57,1.60
2011,08,21,03,59,1.60
2011,08,21,04,00,3.20
2011,08,21,04,01,4.80
2011,08,21,04,02,3.20
2011,08,21,04,03,3.20
2011,08,21,04,04,3.20
2011,08,21,04,05,3.20
2011,08,21,04,06,1.60
2011,08,21,04,12,1.60
2011,08,21,04,13,3.20
2011,08,21,04,14,3.20
2011,08,21,04,15,1.60
2011,08,21,04,16,1.60
2011,08,21,04,17,1.60
2011,08,21,04,22,1.60
2011,08,21,04,23,1.60
2011,08,21,04,26,4.80
2011,08,21,04,27,3.20
2011,08,21,04,28,3.20
2011,08,21,04,29,1.60
2011,08,21,04,36,1.60
2011,08,21,04,37,3.20
2011,08,21,04,38,3.20
2011,08,21,04,39,3.20
2011,08,21,04,40,1.60
2011,08,21,04,41,1.60
2011,08,21,04,42,1.60
2011,08,21,04,45,1.60
2011,08,21,04,46,1.60
2011,08,21,04,48,1.60
2011,08,21,04,49,3.20
2011,08,21,04,50,1.60
2011,08,21,04,51,1.60
2011,08,21,04,54,3.20
2011,08,21,04,55,4.80
2011,08,21,04,56,6.40
2011,08,21,04,57,6.40
2011,08,21,04,58,4.80
2011,08,21,04,59,3.20
2011,08,21,05,00,6.40
2011,08,21,05,01,3.20
2011,08,21,05,02,4.80
2011,08,21,05,03,8.10
2011,08,21,05,04,6.40
2011,08,21,05,05,3.20
2011,08,21,05,06,1.60
2011,08,21,05,08,6.40
2011,08,21,05,09,6.40
2011,08,21,05,10,1.60
2011,08,21,05,11,1.60
2011,08,21,05,12,1.60
2011,08,21,05,13,3.20
2011,08,21,05,14,3.20
2011,08,21,05,15,4.80
2011,08,21,05,16,6.40
2011,08,21,05,17,6.40
2011,08,21,05,18,3.20
2011,08,21,05,19,3.20
2011,08,21,05,20,1.60
2011,08,21,05,21,1.60
2011,08,21,05,22,1.60
2011,08,21,05,23,3.20
2011,08,21,05,24,1.60
2011,08,21,05,26,3.20
2011,08,21,05,27,3.20
2011,08,21,05,28,4.80
2011,08,21,05,29,1.60
2011,08,21,05,33,1.60
2011,08,21,05,35,4.80
2011,08,21,05,36,6.40
2011,08,21,05,37,3.20
2011,08,21,05,39,1.60
2011,08,21,05,40,3.20
2011,08,21,05,41,6.40
2011,08,21,05,42,4.80
2011,08,21,05,43,3.20
2011,08,21,05,44,3.20
2011,08,21,05,45,1.60
2011,08,21,05,46,3.20
2011,08,21,05,47,4.80
2011,08,21,05,48,4.80
2011,08,21,05,49,4.80
2011,08,21,05,50,3.20
2011,08,21,05,51,3.20
2011,08,21,05,52,3.20
2011,08,21,05,53,4.80
2011,08,21,05,54,3.20
2011,08,21,05,55,3.20
2011,08,21,05,56,3.20
2011,08,21,05,57,3.20
2011,08,21,05,58,3.20
2011,08,21,05,59,3.20
2011,08,21,06,00,3.20
2011,08,21,06,01,1.60
2011,08,21,06,02,1.60
2011,08,21,06,03,1.60
2011,08,21,06,04,1.60
2011,08,21,06,05,3.20
2011,08,21,06,06,1.60
2011,08,21,06,09,1.60
2011,08,21,06,10,3.20
2011,08,21,06,11,1.60
2011,08,21,06,17,3.20
2011,08,21,06,18,3.20
2011,08,21,06,19,1.60
2011,08,21,06,20,1.60
2011,08,21,06,26,3.20
2011,08,21,06,27,3.20
2011,08,21,06,28,3.20
2011,08,21,06,29,3.20
2011,08,21,06,30,1.60
2011,08,21,06,38,1.60
2011,08,21,06,40,1.60
2011,08,21,06,41,3.20
2011,08,21,06,42,3.20
2011,08,21,06,43,4.80
2011,08,21,06,44,3.20
2011,08,21,06,45,4.80
2011,08,21,06,46,8.10
2011,08,21,06,47,4.80
2011,08,21,06,48,4.80
2011,08,21,06,49,9.60
2011,08,21,06,50,4.80
2011,08,21,06,51,4.80
2011,08,21,06,52,8.10
2011,08,21,06,53,4.80
2011,08,21,06,54,6.40
2011,08,21,06,55,4.80
2011,08,21,06,56,4.80
2011,08,21,06,57,3.20
2011,08,21,06,58,3.20
2011,08,21,06,59,3.20
2011,08,21,07,00,1.60
2011,08,21,07,01,3.20
2011,08,21,07,02,1.60
2011,08,21,07,03,1.60
2011,08,21,07,07,1.60
2011,08,21,07,08,3.20
2011,08,21,07,09,3.20
2011,08,21,07,10,3.20
2011,08,21,07,11,3.20
2011,08,21,07,12,3.20
2011,08,21,07,13,4.80
2011,08,21,07,14,3.20
2011,08,21,07,15,4.80
2011,08,21,07,16,3.20
2011,08,21,07,17,3.20
2011,08,21,07,18,4.80
2011,08,21,07,19,4.80
2011,08,21,07,20,3.20
2011,08,21,07,21,3.20
2011,08,21,07,22,3.20
2011,08,21,07,23,3.20
2011,08,21,07,24,3.20
2011,08,21,07,25,4.80
2011,08,21,07,26,4.80
2011,08,21,07,27,4.80
2011,08,21,07,28,3.20
2011,08,21,07,29,3.20
2011,08,21,07,30,1.60
2011,08,21,07,37,1.60
2011,08,21,07,38,1.60
2011,08,21,07,39,4.80
2011,08,21,07,40,4.80
2011,08,21,07,41,3.20
2011,08,21,07,42,1.60
2011,08,21,07,43,1.60
2011,08,21,07,47,3.20
2011,08,21,07,48,3.20
2011,08,21,07,49,1.60
2011,08,21,07,54,1.60
2011,08,21,08,00,1.60
2011,08,21,08,01,1.60
2011,08,21,08,03,1.60
2011,08,21,08,04,1.60
2011,08,21,08,05,1.60
2011,08,21,08,11,1.60
2011,08,21,08,12,3.20
2011,08,21,08,13,1.60
2011,08,21,08,14,1.60
2011,08,21,08,18,1.60
2011,08,21,08,19,3.20
2011,08,21,08,20,3.20
2011,08,21,08,21,3.20
2011,08,21,08,22,1.60
2011,08,21,08,29,1.60
2011,08,21,08,31,1.60
2011,08,21,08,32,1.60
2011,08,21,08,33,3.20
2011,08,21,08,34,3.20
2011,08,21,08,35,3.20
2011,08,21,08,36,1.60
2011,08,21,08,37,1.60
2011,08,21,08,38,3.20
2011,08,21,08,39,1.60
2011,08,21,08,40,1.60
2011,08,21,08,41,3.20
2011,08,21,08,42,4.80
2011,08,21,08,43,3.20
2011,08,21,08,44,3.20
2011,08,21,08,45,3.20
2011,08,21,08,46,1.60
2011,08,21,08,47,3.20
2011,08,21,08,48,3.20
2011,08,21,08,49,3.20
2011,08,21,08,50,3.20
2011,08,21,08,51,3.20
2011,08,21,08,52,1.60
2011,08,21,08,53,1.60
2011,08,21,08,54,1.60
2011,08,21,08,55,1.60
2011,08,21,08,56,3.20
2011,08,21,08,57,1.60
2011,08,21,08,58,1.60
2011,08,21,09,00,1.60
2011,08,21,09,02,1.60
2011,08,21,09,03,1.60
2011,08,21,09,04,1.60
2011,08,21,09,05,1.60
2011,08,21,09,06,1.60
2011,08,21,09,07,1.60
2011,08,21,09,10,3.20
2011,08,21,09,11,3.20
2011,08,21,09,12,3.20
2011,08,21,09,13,1.60
2011,08,21,09,14,1.60
2011,08,21,09,15,3.20
2011,08,21,09,16,3.20
2011,08,21,09,17,1.60
2011,08,21,09,18,1.60
2011,08,21,09,19,1.60
2011,08,21,09,21,1.60
2011,08,21,09,22,3.20
2011,08,21,09,23,3.20
2011,08,21,09,24,1.60
2011,08,21,09,25,3.20
2011,08,21,09,26,3.20
2011,08,21,09,27,3.20
2011,08,21,09,28,1.60
2011,08,21,09,29,1.60
2011,08,21,09,31,3.20
2011,08,21,09,33,1.60
2011,08,21,09,34,1.60
2011,08,21,09,35,1.60
2011,08,21,09,37,1.60
2011,08,21,09,38,1.60
2011,08,21,09,39,1.60
2011,08,21,09,41,1.60
2011,08,21,09,42,1.60
2011,08,21,09,44,1.60
2011,08,21,09,45,1.60
2011,08,21,09,46,1.60
2011,08,21,09,47,3.20
2011,08,21,09,48,3.20
2011,08,21,09,49,4.80
2011,08,21,09,50,4.80
2011,08,21,09,51,1.60
2011,08,21,09,52,1.60
2011,08,21,09,53,4.80
2011,08,21,09,54,4.80
2011,08,21,09,55,1.60
2011,08,21,09,56,1.60
2011,08,21,09,57,1.60
2011,08,21,09,58,1.60
2011,08,21,09,59,1.60
2011,08,21,10,00,3.20
2011,08,21,10,01,3.20
2011,08,21,10,02,1.60
2011,08,21,10,03,1.60
2011,08,21,10,04,1.60
2011,08,21,10,07,3.20
2011,08,21,10,08,3.20
2011,08,21,10,09,4.80
2011,08,21,10,10,6.40
2011,08,21,10,11,3.20
2011,08,21,10,12,3.20
2011,08,21,10,14,1.60
2011,08,21,10,15,1.60
2011,08,21,10,16,3.20
2011,08,21,10,17,3.20
2011,08,21,10,18,1.60
2011,08,21,10,19,1.60
2011,08,21,10,20,3.20
2011,08,21,10,21,3.20
2011,08,21,10,22,3.20
2011,08,21,10,23,3.20
2011,08,21,10,24,1.60
2011,08,21,10,25,3.20
2011,08,21,10,26,4.80
2011,08,21,10,27,4.80
2011,08,21,10,28,4.80
2011,08,21,10,29,3.20
2011,08,21,10,30,3.20
2011,08,21,10,31,4.80
2011,08,21,10,32,4.80
2011,08,21,10,35,1.60
2011,08,21,10,36,3.20
2011,08,21,10,37,3.20
2011,08,21,10,38,3.20
2011,08,21,10,39,3.20
2011,08,21,10,40,4.80
2011,08,21,10,41,4.80
2011,08,21,10,42,4.80
2011,08,21,10,43,8.10
2011,08,21,10,44,9.60
2011,08,21,10,45,8.10
2011,08,21,10,46,6.40
2011,08,21,10,47,6.40
2011,08,21,10,48,6.40
2011,08,21,10,49,4.80
2011,08,21,10,50,4.80
2011,08,21,10,51,8.10
2011,08,21,10,52,6.40
2011,08,21,10,53,4.80
2011,08,21,10,54,8.10
2011,08,21,10,55,9.60
2011,08,21,10,56,9.60
2011,08,21,10,57,8.10
2011,08,21,10,58,11.30
2011,08,21,10,59,11.30
2011,08,21,11,00,9.60
2011,08,21,11,01,8.10
2011,08,21,11,02,9.60
2011,08,21,11,03,6.40
2011,08,21,11,04,4.80
2011,08,21,11,05,4.80
2011,08,21,11,06,4.80
2011,08,21,11,07,6.40
2011,08,21,11,08,4.80
2011,08,21,11,09,3.20
2011,08,21,11,10,3.20
2011,08,21,11,11,3.20
2011,08,21,11,12,4.80
2011,08,21,11,13,6.40
2011,08,21,11,14,4.80
2011,08,21,11,15,4.80
2011,08,21,11,16,3.20
2011,08,21,11,17,4.80
2011,08,21,11,18,4.80
2011,08,21,11,19,8.10
2011,08,21,11,20,6.40
2011,08,21,11,21,8.10
2011,08,21,11,22,6.40
2011,08,21,11,23,6.40
2011,08,21,11,24,4.80
2011,08,21,11,25,8.10
2011,08,21,11,26,11.30
2011,08,21,11,27,4.80
2011,08,21,11,28,9.60
2011,08,21,11,29,9.60
2011,08,21,11,30,8.10
2011,08,21,11,31,9.60
2011,08,21,11,32,11.30
2011,08,21,11,33,14.50
2011,08,21,11,34,8.10
2011,08,21,11,35,9.60
2011,08,21,11,36,8.10
2011,08,21,11,37,8.10
2011,08,21,11,38,8.10
2011,08,21,11,39,9.60
2011,08,21,11,40,4.80
2011,08,21,11,41,8.10
2011,08,21,11,42,8.10
2011,08,21,11,43,8.10
2011,08,21,11,44,8.10
2011,08,21,11,45,8.10
2011,08,21,11,46,8.10
2011,08,21,11,47,8.10
2011,08,21,11,48,9.60
2011,08,21,11,49,8.10
2011,08,21,11,50,8.10
2011,08,21,11,51,4.80
2011,08,21,11,52,4.80
2011,08,21,11,53,6.40
2011,08,21,11,54,3.20
2011,08,21,11,55,4.80
2011,08,21,11,56,4.80
2011,08,21,11,57,4.80
2011,08,21,11,58,3.20
2011,08,21,11,59,3.20
2011,08,21,12,00,4.80
2011,08,21,12,01,6.40
2011,08,21,12,02,6.40
2011,08,21,12,03,3.20
2011,08,21,12,04,4.80
2011,08,21,12,05,3.20
2011,08,21,12,06,3.20
2011,08,21,12,07,3.20
2011,08,21,12,08,3.20
2011,08,21,12,09,3.20
2011,08,21,12,10,8.10
2011,08,21,12,11,6.40
2011,08,21,12,12,6.40
2011,08,21,12,13,4.80
2011,08,21,12,14,3.20
2011,08,21,12,15,3.20
2011,08,21,12,16,4.80
2011,08,21,12,17,6.40
2011,08,21,12,18,6.40
2011,08,21,12,19,6.40
2011,08,21,12,20,4.80
2011,08,21,12,21,3.20
2011,08,21,12,22,3.20
2011,08,21,12,23,3.20
2011,08,21,12,24,1.60
2011,08,21,12,25,4.80
2011,08,21,12,26,3.20
2011,08,21,12,27,3.20
2011,08,21,12,28,4.80
2011,08,21,12,29,3.20
2011,08,21,12,30,4.80
2011,08,21,12,31,4.80
2011,08,21,12,32,4.80
2011,08,21,12,33,6.40
2011,08,21,12,34,6.40
2011,08,21,12,35,4.80
2011,08,21,12,36,3.20
2011,08,21,12,37,4.80
2011,08,21,12,38,4.80
2011,08,21,12,39,4.80
2011,08,21,12,40,4.80
2011,08,21,12,41,4.80
2011,08,21,12,42,6.40
2011,08,21,12,43,4.80
2011,08,21,12,44,6.40
2011,08,21,12,45,3.20
2011,08,21,12,46,4.80
2011,08,21,12,47,4.80
2011,08,21,12,48,4.80
2011,08,21,12,49,6.40
2011,08,21,12,50,6.40
2011,08,21,12,51,4.80
2011,08,21,12,52,3.20
2011,08,21,12,53,3.20
2011,08,21,12,54,1.60
2011,08,21,12,55,4.80
2011,08,21,12,56,3.20
2011,08,21,12,57,6.40
2011,08,21,12,58,8.10
2011,08,21,12,59,6.40
2011,08,21,13,00,6.40
2011,08,21,13,01,6.40
2011,08,21,13,02,6.40
2011,08,21,13,03,6.40
2011,08,21,13,04,3.20
2011,08,21,13,05,4.80
2011,08,21,13,06,4.80
2011,08,21,13,07,4.80
2011,08,21,13,08,6.40
2011,08,21,13,09,4.80
2011,08,21,13,10,4.80
2011,08,21,13,11,6.40
2011,08,21,13,12,4.80
2011,08,21,13,13,6.40
2011,08,21,13,14,4.80
2011,08,21,13,15,4.80
2011,08,21,13,16,3.20
2011,08,21,13,17,4.80
2011,08,21,13,18,4.80
2011,08,21,13,19,1.60
2011,08,21,13,20,1.60
2011,08,21,13,21,1.60
2011,08,21,13,22,3.20
2011,08,21,13,23,3.20
2011,08,21,13,25,4.80
2011,08,21,13,26,4.80
2011,08,21,13,27,4.80
2011,08,21,13,28,4.80
2011,08,21,13,29,4.80
2011,08,21,13,30,9.60
2011,08,21,13,31,6.40
2011,08,21,13,32,6.40
2011,08,21,13,33,4.80
2011,08,21,13,34,4.80
2011,08,21,13,35,3.20
2011,08,21,13,36,3.20
2011,08,21,13,37,3.20
2011,08,21,13,38,3.20
2011,08,21,13,39,4.80
2011,08,21,13,40,1.60
2011,08,21,13,41,4.80
2011,08,21,13,42,4.80
2011,08,21,13,43,3.20
2011,08,21,13,44,3.20
2011,08,21,13,45,3.20
2011,08,21,13,46,4.80
2011,08,21,13,47,3.20
2011,08,21,13,48,3.20
2011,08,21,13,49,3.20
2011,08,21,13,51,1.60
2011,08,21,13,52,6.40
2011,08,21,13,53,4.80
2011,08,21,13,54,3.20
2011,08,21,13,55,3.20
2011,08,21,13,56,8.10
2011,08,21,13,57,4.80
2011,08,21,13,58,4.80
2011,08,21,13,59,4.80
2011,08,21,14,00,6.40
2011,08,21,14,01,6.40
2011,08,21,14,02,3.20
2011,08,21,14,03,1.60
2011,08,21,14,04,6.40
2011,08,21,14,05,6.40
2011,08,21,14,06,6.40
2011,08,21,14,07,6.40
2011,08,21,14,08,4.80
2011,08,21,14,09,8.10
2011,08,21,14,10,4.80
2011,08,21,14,11,9.60
2011,08,21,14,12,8.10
2011,08,21,14,13,9.60
2011,08,21,14,14,6.40
2011,08,21,14,15,6.40
2011,08,21,14,16,8.10
2011,08,21,14,17,9.60
2011,08,21,14,18,8.10
2011,08,21,14,19,6.40
2011,08,21,14,20,9.60
2011,08,21,14,21,6.40
2011,08,21,14,22,8.10
2011,08,21,14,23,6.40
2011,08,21,14,24,11.30
2011,08,21,14,25,9.60
2011,08,21,14,26,12.90
2011,08,21,14,27,12.90
2011,08,21,14,28,11.30
2011,08,21,14,29,16.10
2011,08,21,14,30,11.30
2011,08,21,14,31,11.30
2011,08,21,14,32,6.40
2011,08,21,14,33,8.10
2011,08,21,14,34,6.40
2011,08,21,14,35,9.60
2011,08,21,14,36,14.50
2011,08,21,14,37,8.10
2011,08,21,14,38,11.30
2011,08,21,14,39,8.10
2011,08,21,14,40,9.60
2011,08,21,14,41,11.30
2011,08,21,14,42,11.30
2011,08,21,14,43,11.30
2011,08,21,14,44,8.10
2011,08,21,14,45,8.10
2011,08,21,14,46,8.10
2011,08,21,14,47,11.30
2011,08,21,14,48,9.60
2011,08,21,14,49,14.50
2011,08,21,14,50,9.60
2011,08,21,14,51,6.40
2011,08,21,14,52,9.60
2011,08,21,14,53,9.60
2011,08,21,14,54,11.30
2011,08,21,14,55,9.60
2011,08,21,14,56,6.40
2011,08,21,14,57,9.60
2011,08,21,14,58,12.90
2011,08,21,14,59,9.60
2011,08,21,15,00,9.60
2011,08,21,15,01,9.60
2011,08,21,15,02,11.30
2011,08,21,15,03,16.10
2011,08,21,15,04,11.30
2011,08,21,15,05,8.10
2011,08,21,15,06,9.60
2011,08,21,15,07,8.10
2011,08,21,15,08,8.10
2011,08,21,15,09,11.30
2011,08,21,15,10,8.10
2011,08,21,15,11,11.30
2011,08,21,15,12,14.50
2011,08,21,15,13,11.30
2011,08,21,15,14,11.30
2011,08,21,15,15,12.90
2011,08,21,15,16,9.60
2011,08,21,15,17,9.60
2011,08,21,15,18,8.10
2011,08,21,15,19,11.30
2011,08,21,15,20,11.30
2011,08,21,15,21,9.60
2011,08,21,15,22,6.40
2011,08,21,15,23,4.80
2011,08,21,15,24,1.60
2011,08,21,15,25,8.10
2011,08,21,15,26,6.40
2011,08,21,15,27,6.40
2011,08,21,15,28,6.40
2011,08,21,15,29,9.60
2011,08,21,15,30,8.10
2011,08,21,15,31,8.10
2011,08,21,15,32,6.40
2011,08,21,15,33,8.10
2011,08,21,15,34,9.60
2011,08,21,15,35,8.10
2011,08,21,15,36,8.10
2011,08,21,15,37,8.10
2011,08,21,15,38,8.10
2011,08,21,15,39,3.20
2011,08,21,15,40,3.20
2011,08,21,15,41,3.20
2011,08,21,15,42,4.80
2011,08,21,15,43,6.40
2011,08,21,15,44,4.80
2011,08,21,15,45,4.80
2011,08,21,15,46,8.10
2011,08,21,15,47,6.40
2011,08,21,15,48,6.40
2011,08,21,15,49,4.80
2011,08,21,15,50,3.20
2011,08,21,15,51,4.80
2011,08,21,15,52,6.40
2011,08,21,15,53,3.20
2011,08,21,15,54,4.80
2011,08,21,15,55,8.10
2011,08,21,15,56,8.10
2011,08,21,15,57,6.40
2011,08,21,15,58,3.20
2011,08,21,15,59,6.40
2011,08,21,16,00,4.80
2011,08,21,16,01,4.80
2011,08,21,16,02,4.80
2011,08,21,16,03,3.20
2011,08,21,16,04,6.40
2011,08,21,16,05,4.80
2011,08,21,16,06,6.40
2011,08,21,16,07,4.80
2011,08,21,16,08,4.80
2011,08,21,16,09,6.40
2011,08,21,16,10,4.80
2011,08,21,16,11,8.10
2011,08,21,16,12,4.80
2011,08,21,16,13,4.80
2011,08,21,16,14,4.80
2011,08,21,16,15,4.80
2011,08,21,16,16,6.40
2011,08,21,16,17,4.80
2011,08,21,16,18,8.10
2011,08,21,16,19,6.40
2011,08,21,16,20,9.60
2011,08,21,16,21,8.10
2011,08,21,16,22,8.10
2011,08,21,16,23,8.10
2011,08,21,16,24,4.80
2011,08,21,16,25,8.10
2011,08,21,16,26,6.40
2011,08,21,16,27,6.40
2011,08,21,16,28,4.80
2011,08,21,16,29,11.30
2011,08,21,16,30,11.30
2011,08,21,16,31,11.30
2011,08,21,16,32,9.60
2011,08,21,16,33,8.10
2011,08,21,16,34,6.40
2011,08,21,16,35,8.10
2011,08,21,16,36,8.10
2011,08,21,16,37,8.10
2011,08,21,16,38,8.10
2011,08,21,16,39,8.10
2011,08,21,16,40,6.40
2011,08,21,16,41,6.40
2011,08,21,16,42,8.10
2011,08,21,16,43,3.20
2011,08,21,16,44,6.40
2011,08,21,16,45,8.10
2011,08,21,16,46,8.10
2011,08,21,16,47,8.10
2011,08,21,16,48,6.40
2011,08,21,16,49,4.80
2011,08,21,16,50,9.60
2011,08,21,16,51,9.60
2011,08,21,16,52,6.40
2011,08,21,16,53,4.80
2011,08,21,16,54,6.40
2011,08,21,16,55,9.60
2011,08,21,16,56,11.30
2011,08,21,16,57,11.30
2011,08,21,16,58,11.30
2011,08,21,16,59,9.60
2011,08,21,17,00,6.40
2011,08,21,17,01,8.10
2011,08,21,17,02,8.10
2011,08,21,17,03,9.60
2011,08,21,17,04,8.10
2011,08,21,17,05,8.10
2011,08,21,17,06,9.60
2011,08,21,17,07,8.10
2011,08,21,17,08,9.60
2011,08,21,17,09,9.60
2011,08,21,17,10,6.40
2011,08,21,17,11,6.40
2011,08,21,17,12,6.40
2011,08,21,17,13,9.60
2011,08,21,17,14,9.60
2011,08,21,17,15,4.80
2011,08,21,17,16,4.80
2011,08,21,17,17,4.80
2011,08,21,17,18,9.60
2011,08,21,17,19,8.10
2011,08,21,17,20,8.10
2011,08,21,17,21,8.10
2011,08,21,17,22,9.60
2011,08,21,17,23,9.60
2011,08,21,17,24,6.40
2011,08,21,17,25,9.60
2011,08,21,17,26,8.10
2011,08,21,17,27,6.40
2011,08,21,17,28,4.80
2011,08,21,17,29,4.80
2011,08,21,17,30,6.40
2011,08,21,17,31,6.40
2011,08,21,17,32,4.80
2011,08,21,17,33,4.80
2011,08,21,17,34,3.20
2011,08,21,17,35,4.80
2011,08,21,17,36,3.20
2011,08,21,17,37,8.10
2011,08,21,17,38,6.40
2011,08,21,17,39,3.20
2011,08,21,17,40,6.40
2011,08,21,17,41,4.80
2011,08,21,17,42,4.80
2011,08,21,17,43,3.20
2011,08,21,17,44,3.20
2011,08,21,17,45,3.20
2011,08,21,17,46,3.20
2011,08,21,17,47,3.20
2011,08,21,17,48,8.10
2011,08,21,17,49,6.40
2011,08,21,17,50,4.80
2011,08,21,17,51,3.20
2011,08,21,17,52,3.20
2011,08,21,17,53,3.20
2011,08,21,17,54,1.60
2011,08,21,17,55,3.20
2011,08,21,17,56,3.20
2011,08,21,17,57,3.20
2011,08,21,17,58,3.20
2011,08,21,17,59,3.20
2011,08,21,18,00,1.60
2011,08,21,18,01,4.80
2011,08,21,18,02,3.20
2011,08,21,18,03,3.20
2011,08,21,18,04,4.80
2011,08,21,18,05,1.60
2011,08,21,18,06,3.20
2011,08,21,18,07,4.80
2011,08,21,18,08,1.60
2011,08,21,18,09,3.20
2011,08,21,18,10,4.80
2011,08,21,18,11,4.80
2011,08,21,18,12,3.20
2011,08,21,18,13,3.20
2011,08,21,18,14,6.40
2011,08,21,18,15,6.40
2011,08,21,18,16,3.20
2011,08,21,18,17,1.60
2011,08,21,18,18,1.60
2011,08,21,18,19,3.20
2011,08,21,18,20,3.20
2011,08,21,18,21,1.60
2011,08,21,18,22,1.60
2011,08,21,18,23,3.20
2011,08,21,18,24,1.60
2011,08,21,18,25,1.60
2011,08,21,18,26,1.60
2011,08,21,18,27,3.20
2011,08,21,18,28,3.20
2011,08,21,18,29,3.20
2011,08,21,18,30,3.20
2011,08,21,18,31,1.60
2011,08,21,18,32,1.60
2011,08,21,18,33,1.60
2011,08,21,18,34,3.20
2011,08,21,18,35,4.80
2011,08,21,18,36,4.80
2011,08,21,18,37,3.20
2011,08,21,18,38,1.60
2011,08,21,18,39,3.20
2011,08,21,18,40,3.20
2011,08,21,18,41,4.80
2011,08,21,18,42,3.20
2011,08,21,18,43,1.60
2011,08,21,18,44,1.60
2011,08,21,18,45,1.60
2011,08,21,18,46,3.20
2011,08,21,18,47,4.80
2011,08,21,18,48,4.80
2011,08,21,18,49,6.40
2011,08,21,18,50,4.80
2011,08,21,18,51,4.80
2011,08,21,18,52,3.20
2011,08,21,18,53,4.80
2011,08,21,18,54,1.60
2011,08,21,18,55,3.20
2011,08,21,18,56,4.80
2011,08,21,18,57,4.80
2011,08,21,18,58,4.80
2011,08,21,18,59,3.20
2011,08,21,19,00,4.80
2011,08,21,19,01,4.80
2011,08,21,19,02,1.60
2011,08,21,19,05,4.80
2011,08,21,19,06,6.40
2011,08,21,19,07,4.80
2011,08,21,19,08,1.60
2011,08,21,19,09,4.80
2011,08,21,19,10,4.80
2011,08,21,19,11,3.20
2011,08,21,19,12,1.60
2011,08,21,19,13,4.80
2011,08,21,19,14,6.40
2011,08,21,19,15,4.80
2011,08,21,19,16,4.80
2011,08,21,19,17,4.80
2011,08,21,19,18,3.20
2011,08,21,19,19,4.80
2011,08,21,19,20,4.80
2011,08,21,19,21,4.80
2011,08,21,19,22,4.80
2011,08,21,19,23,3.20
2011,08,21,19,27,1.60
2011,08,21,19,28,3.20
2011,08,21,19,29,1.60
2011,08,21,19,30,1.60
2011,08,21,19,31,1.60
2011,08,21,19,39,3.20
2011,08,21,19,40,3.20
2011,08,21,19,41,3.20
2011,08,21,19,42,3.20
2011,08,21,19,43,3.20
2011,08,21,19,44,3.20
2011,08,21,19,48,3.20
2011,08,21,19,50,1.60
2011,08,21,19,51,3.20
2011,08,21,19,52,3.20
2011,08,21,19,53,3.20
2011,08,21,19,54,1.60
2011,08,21,19,55,1.60
2011,08,21,19,57,3.20
2011,08,21,19,58,3.20
2011,08,21,19,59,1.60
2011,08,21,20,00,3.20
2011,08,21,20,01,4.80
2011,08,21,20,02,4.80
2011,08,21,20,03,3.20
2011,08,21,20,04,3.20
2011,08,21,20,05,3.20
2011,08,21,20,06,3.20
2011,08,21,20,07,1.60
2011,08,21,20,08,3.20
2011,08,21,20,09,3.20
2011,08,21,20,10,4.80
2011,08,21,20,11,3.20
2011,08,21,20,12,4.80
2011,08,21,20,13,6.40
2011,08,21,20,14,6.40
2011,08,21,20,15,6.40
2011,08,21,20,16,6.40
2011,08,21,20,17,4.80
2011,08,21,20,18,3.20
2011,08,21,20,20,1.60
2011,08,21,20,21,1.60
2011,08,21,20,22,3.20
2011,08,21,20,23,1.60
2011,08,21,20,28,1.60
2011,08,21,20,29,1.60
2011,08,21,20,30,3.20
2011,08,21,20,31,4.80
2011,08,21,20,32,4.80
2011,08,21,20,33,3.20
2011,08,21,20,34,1.60
2011,08,21,20,43,3.20
2011,08,21,20,44,6.40
2011,08,21,20,45,8.10
2011,08,21,20,46,8.10
2011,08,21,20,47,8.10
2011,08,21,20,48,3.20
2011,08,21,20,51,1.60
2011,08,21,20,52,1.60
2011,08,21,20,53,3.20
2011,08,21,20,54,3.20
2011,08,21,20,55,1.60
2011,08,21,20,56,1.60
2011,08,21,21,06,1.60
2011,08,21,21,12,3.20
2011,08,21,21,13,3.20
2011,08,21,21,14,3.20
2011,08,21,21,15,4.80
2011,08,21,21,16,8.10
2011,08,21,21,17,4.80
2011,08,21,21,18,3.20
2011,08,21,21,21,1.60
2011,08,21,21,22,4.80
2011,08,21,21,23,4.80
2011,08,21,21,24,1.60
2011,08,21,21,26,3.20
2011,08,21,21,27,3.20
2011,08,21,21,28,1.60
2011,08,21,21,29,4.80
2011,08,21,21,30,3.20
2011,08,21,21,31,4.80
2011,08,21,21,32,6.40
2011,08,21,21,33,4.80
2011,08,21,21,34,3.20
2011,08,21,21,35,4.80
2011,08,21,21,36,4.80
2011,08,21,21,37,4.80
2011,08,21,21,38,3.20
2011,08,21,21,39,6.40
2011,08,21,21,40,6.40
2011,08,21,21,41,6.40
2011,08,21,21,42,6.40
2011,08,21,21,43,6.40
2011,08,21,21,44,1.60
2011,08,21,21,45,4.80
2011,08,21,21,46,4.80
2011,08,21,21,47,3.20
2011,08,21,21,48,4.80
2011,08,21,21,49,6.40
2011,08,21,21,50,6.40
2011,08,21,21,51,3.20
2011,08,21,21,52,6.40
2011,08,21,21,53,8.10
2011,08,21,21,54,3.20